This demonstration page uses our WeatherBlox Daily Observations layout. Learn more.

Left ArrowRight Arrow

39.12711, -84.51439

Hourly Observations for May 31, 2018

Temp ( °F °C ) Dew Point ( °F °C ) Humidity (%) Winds ( mph kmh ) Pressure ( in mb ) Visibility ( mi km ) Precip ( " mm )
12:53 am 00:53 Clear 71 21.7 70 21.1 96 96 SSW 5 7 29.77 1008 10 16 0.00 0.03
1:53 am 01:53 Clear 71 21.7 70 21.1 96 96 SW 6 9 29.78 1008 10 16 0.00 0.03
2:40 am 02:40 Cloudy 72 22.2 71 21.7 97 97 W 3 6 29.80 1009 10 16 0.00 0.03
2:53 am 02:53 Cloudy 72 22.2 72 22.2 100 100 Calm 29.78 1009 10 16 0.00 0.03
3:34 am 03:34 Partly Cloudy 70 21.1 70 21.1 100 100 S 5 7 29.80 1009 9 14 0.00 0.00
3:53 am 03:53 Mostly Clear 70 21.1 70 21.1 100 100 SW 3 6 29.78 1009 9 14 0.00 0.00
4:53 am 04:53 Clear with Mist and Fog 70 21.1 70 21.1 100 100 Calm 29.78 1008 6 10 0.00 0.00
5:31 am 05:31 Partly Cloudy with Mist and Fog 69 20.6 69 20.6 100 100 Calm 29.80 1009 2 2 0.00 0.00
5:48 am 05:48 Clear with Mist and Fog 70 21 70 21 100 100 Calm 29.80 1009 3 5 0.00 0.00
5:53 am 05:53 Clear 70 21.1 70 21.1 100 100 Calm 29.78 1009 7 11 0.00 0.00
6:03 am 06:03 Clear with Mist and Fog 69 20.6 69 20.6 100 100 Calm 29.80 1009 2 3 0.00 0.00
6:13 am 06:13 Clear with Mist and Fog 69 20.6 69 20.6 100 100 Calm 29.80 1009 3 5 0.00 0.00
6:53 am 06:53 Sunny 70 21.1 70 21.1 100 100 Calm 29.80 1009 10 16 0.00 0.00
7:53 am 07:53 Sunny 73 22.8 71 21.7 94 94 S 7 11 29.82 1010 10 16 0.00 0.00
8:53 am 08:53 Mostly Sunny 76 24.4 72 22.2 88 88 SSW 8 13 29.83 1010 10 16 0.00 0.00
9:53 am 09:53 Sunny 79 26.1 73 22.8 82 82 SSW 9 15 29.84 1010 10 16 0.00 0.00
10:53 am 10:53 Mostly Cloudy 79 26.1 72 22.2 79 79 SSW 7 11 29.84 1011 10 16 0.00 0.00
11:04 am 11:04 Mostly Cloudy 79 26.1 72 22.2 79 79 SSW 10 17 29.85 1011 10 16 0.00 0.00
11:53 am 11:53 Mostly Sunny 81 27.2 74 23.3 79 79 S 9 15 29.83 1010 10 16 0.00 0.00
12:53 pm 12:53 Partly Cloudy 84 28.9 75 23.9 74 74 SSW 8 13 29.82 1010 10 16 0.00 0.00
1:53 pm 13:53 Partly Cloudy 85 29.4 76 24.4 75 75 SSW 12 19 29.82 1010 10 16 0.00 0.00
2:53 pm 14:53 Mostly Cloudy 86 30 76 24.4 72 72 SW 12 19 29.81 1010 10 16 0.00 0.00
3:53 pm 15:53 Mostly Cloudy with Thunderstorms 85 29.4 74 23.3 70 70 SW 16 26 29.81 1010 10 16 0.00 0.00
4:02 pm 16:02 Windy with Storms Likely 74 23.3 66 18.9 76 76 W 35 56 29.88 1012 2 3 0.05 1.27
4:09 pm 16:09 Mostly Cloudy with Strong Thunderstorms 69 20.6 67 19.4 93 93 WSW 24 39 29.88 1012 1 2 0.24 6.10
4:18 pm 16:18 Cloudy with Nearby Thunderstorms 69 20.6 67 19.4 93 93 WSW 22 35 29.88 1012 5 8 0.32 8.13
4:41 pm 16:41 Cloudy 71 21.7 69 20.6 94 94 SW 12 19 29.85 1011 10 16 0.32 8.13
4:53 pm 16:53 Mostly Cloudy 71 21.7 70 21.1 96 96 SSW 12 19 29.85 1011 9 14 0.32 8.13
5:53 pm 17:53 Mostly Cloudy with Light Rain 70 21.1 68 20 93 93 S 8 13 29.84 1010 10 16 0.01 0.25
6:53 pm 18:53 Mostly Sunny 70 21.1 67 19.4 90 90 Calm 29.79 1009 10 16 0.00 0.03
7:53 pm 19:53 Sunny 70 21.1 68 20 93 93 S 7 11 29.81 1010 10 16 0.00 0.00
8:53 pm 20:53 Sunny 69 20.6 68 20 96 96 S 6 9 29.83 1010 10 16 0.00 0.00
9:53 pm 21:53 Clear 68 20 66 18.9 93 93 VRB 5 7 29.83 1010 10 16 0.00 0.00
10:53 pm 22:53 Mostly Clear 69 20.6 66 18.9 90 90 S 6 9 29.85 1011 10 16 0.00 0.00
11:53 pm 23:53 Mostly Clear 68 20 66 18.9 93 93 Calm 29.85 1011 10 16 0.00 0.00

Powered by AerisWeather